Time,TemperatureF,DewpointF,PressureIn,WindDirection,WindDirectionDegrees,WindSpeedMPH,WindSpeedGustMPH,Humidity,HourlyPrecipIn,Conditions,Clouds,dailyrainin,SoftwareType,DateUTC
2013-03-15 01:01:00,22.1,11.0,29.82,West,262,1.0,4.0,62,0.00,,,0.00,weatherlink.com 1.10,2013-03-15 05:01:00,
2013-03-15 01:16:00,22.2,11.0,29.83,West,274,2.0,6.0,62,0.00,,,0.00,weatherlink.com 1.10,2013-03-15 05:16:00,
2013-03-15 01:46:00,22.5,12.0,29.83,West,280,1.0,4.0,64,0.00,,,0.00,weatherlink.com 1.10,2013-03-15 05:46:00,
2013-03-15 02:01:00,22.4,12.0,29.83,NW,315,3.0,6.0,64,0.00,,,0.00,weatherlink.com 1.10,2013-03-15 06:01:00,
2013-03-15 02:16:00,22.5,12.0,29.83,West,264,0.0,3.0,65,0.00,,,0.00,weatherlink.com 1.10,2013-03-15 06:16:00,
2013-03-15 02:31:00,22.6,12.0,29.83,West,262,0.0,4.0,65,0.00,,,0.00,weatherlink.com 1.10,2013-03-15 06:31:00,
2013-03-15 02:46:00,22.5,12.0,29.83,West,271,2.0,6.0,63,0.00,,,0.00,weatherlink.com 1.10,2013-03-15 06:46:00,
2013-03-15 03:01:00,22.5,12.0,29.83,South,174,1.0,4.0,64,0.00,,,0.00,weatherlink.com 1.10,2013-03-15 07:01:00,
2013-03-15 03:16:00,22.1,11.0,29.82,NW,318,2.0,4.0,63,0.00,,,0.00,weatherlink.com 1.10,2013-03-15 07:16:00,
2013-03-15 03:31:00,21.8,12.0,29.82,NNW,330,0.0,4.0,65,0.00,,,0.00,weatherlink.com 1.10,2013-03-15 07:31:00,
2013-03-15 03:46:00,21.6,11.0,29.82,North,358,2.0,6.0,64,0.00,,,0.00,weatherlink.com 1.10,2013-03-15 07:46:00,
2013-03-15 04:16:00,21.3,11.0,29.82,NNW,333,2.0,4.0,64,0.00,,,0.00,weatherlink.com 1.10,2013-03-15 08:16:00,
2013-03-15 04:31:00,21.2,11.0,29.82,South,174,1.0,6.0,64,0.00,,,0.00,weatherlink.com 1.10,2013-03-15 08:31:00,
2013-03-15 04:46:00,21.1,10.0,29.82,WSW,246,0.0,5.0,63,0.00,,,0.00,weatherlink.com 1.10,2013-03-15 08:46:00,
2013-03-15 05:01:00,20.9,10.0,29.83,SW,218,1.0,4.0,64,0.00,,,0.00,weatherlink.com 1.10,2013-03-15 09:01:00,
2013-03-15 05:16:00,20.6,9.0,29.83,NW,308,1.0,4.0,62,0.00,,,0.00,weatherlink.com 1.10,2013-03-15 09:16:00,
2013-03-15 05:31:00,20.5,9.0,29.84,WSW,240,1.0,4.0,62,0.00,,,0.00,weatherlink.com 1.10,2013-03-15 09:31:00,
2013-03-15 06:01:00,20.2,9.0,29.84,WSW,247,0.0,3.0,61,0.00,,,0.00,weatherlink.com 1.10,2013-03-15 10:01:00,
2013-03-15 06:16:00,20.1,9.0,29.85,West,276,1.0,5.0,61,0.00,,,0.00,weatherlink.com 1.10,2013-03-15 10:16:00,
2013-03-15 06:31:00,19.9,9.0,29.85,WNW,287,1.0,3.0,62,0.00,,,0.00,weatherlink.com 1.10,2013-03-15 10:31:00,
2013-03-15 06:46:00,19.7,9.0,29.85,West,263,0.0,2.0,63,0.00,,,0.00,weatherlink.com 1.10,2013-03-15 10:46:00,
2013-03-15 07:01:00,19.6,8.0,29.85,WSW,246,1.0,2.0,62,0.00,,,0.00,weatherlink.com 1.10,2013-03-15 11:01:00,
2013-03-15 07:16:00,19.5,9.0,29.85,WSW,257,0.0,3.0,63,0.00,,,0.00,weatherlink.com 1.10,2013-03-15 11:16:00,
2013-03-15 07:32:00,19.8,9.0,29.86,SW,224,2.0,3.0,63,0.00,,,0.00,weatherlink.com 1.10,2013-03-15 11:32:00,
2013-03-15 07:47:00,20.5,9.0,29.86,West,280,0.0,6.0,62,0.00,,,0.00,weatherlink.com 1.10,2013-03-15 11:47:00,
2013-03-15 08:02:00,21.2,10.0,29.86,West,274,0.0,4.0,61,0.00,,,0.00,weatherlink.com 1.10,2013-03-15 12:02:00,
2013-03-15 08:17:00,21.8,10.0,29.86,East,92,1.0,3.0,61,0.00,,,0.00,weatherlink.com 1.10,2013-03-15 12:17:00,
2013-03-15 08:32:00,22.6,10.0,29.86,WNW,283,2.0,5.0,59,0.00,,,0.00,weatherlink.com 1.10,2013-03-15 12:32:00,
2013-03-15 08:48:00,22.7,10.0,29.86,West,261,0.0,3.0,58,0.00,,,0.00,weatherlink.com 1.10,2013-03-15 12:48:00,
2013-03-15 09:02:00,23.4,10.0,29.86,NNE,32,3.0,3.0,57,0.00,,,0.00,weatherlink.com 1.10,2013-03-15 13:02:00,
2013-03-15 09:17:00,23.9,10.0,29.86,West,269,0.0,2.0,56,0.00,,,0.00,weatherlink.com 1.10,2013-03-15 13:17:00,
2013-03-15 09:32:00,24.5,11.0,29.86,West,267,0.0,6.0,56,0.00,,,0.00,weatherlink.com 1.10,2013-03-15 13:32:00,
2013-03-15 09:47:00,26.2,10.0,29.85,NW,316,1.0,5.0,51,0.00,,,0.00,weatherlink.com 1.10,2013-03-15 13:47:00,
2013-03-15 10:02:00,27.0,11.0,29.85,West,269,2.0,5.0,50,0.00,,,0.00,weatherlink.com 1.10,2013-03-15 14:02:00,
2013-03-15 10:17:00,27.7,11.0,29.84,West,263,3.0,4.0,49,0.00,,,0.00,weatherlink.com 1.10,2013-03-15 14:17:00,
2013-03-15 10:32:00,28.0,10.0,29.83,West,259,2.0,5.0,47,0.00,,,0.00,weatherlink.com 1.10,2013-03-15 14:32:00,
2013-03-15 10:47:00,28.1,11.0,29.83,NW,323,2.0,4.0,48,0.00,,,0.00,weatherlink.com 1.10,2013-03-15 14:47:00,
2013-03-15 11:02:00,28.7,11.0,29.83,ENE,65,2.0,2.0,48,0.00,,,0.00,weatherlink.com 1.10,2013-03-15 15:02:00,
2013-03-15 11:17:00,30.5,11.0,29.82,SW,236,1.0,3.0,44,0.00,,,0.00,weatherlink.com 1.10,2013-03-15 15:17:00,
2013-03-15 11:32:00,30.8,10.0,29.81,NW,315,0.0,3.0,41,0.00,,,0.00,weatherlink.com 1.10,2013-03-15 15:32:00,
2013-03-15 11:47:00,31.9,9.0,29.80,WSW,252,1.0,3.0,39,0.00,,,0.00,weatherlink.com 1.10,2013-03-15 15:47:00,
2013-03-15 12:02:00,32.3,9.0,29.80,NW,311,1.0,5.0,38,0.00,,,0.00,weatherlink.com 1.10,2013-03-15 16:02:00,
2013-03-15 12:17:00,33.5,11.0,29.78,West,276,1.0,3.0,39,0.00,,,0.00,weatherlink.com 1.10,2013-03-15 16:17:00,
2013-03-15 12:33:00,35.3,9.0,29.77,WSW,255,1.0,4.0,34,0.00,,,0.00,weatherlink.com 1.10,2013-03-15 16:33:00,
2013-03-15 12:47:00,36.5,9.0,29.76,West,273,3.0,5.0,32,0.00,,,0.00,weatherlink.com 1.10,2013-03-15 16:47:00,
2013-03-15 13:02:00,37.4,9.0,29.76,North,5,5.0,5.0,31,0.00,,,0.00,weatherlink.com 1.10,2013-03-15 17:02:00,
2013-03-15 13:18:00,37.9,8.0,29.74,WSW,250,1.0,4.0,29,0.00,,,0.00,weatherlink.com 1.10,2013-03-15 17:18:00,
2013-03-15 13:33:00,38.3,10.0,29.73,NNW,330,2.0,5.0,31,0.00,,,0.00,weatherlink.com 1.10,2013-03-15 17:33:00,
2013-03-15 13:48:00,38.0,9.0,29.73,West,266,2.0,4.0,30,0.00,,,0.00,weatherlink.com 1.10,2013-03-15 17:48:00,
2013-03-15 14:03:00,38.2,10.0,29.71,WSW,252,1.0,6.0,31,0.00,,,0.00,weatherlink.com 1.10,2013-03-15 18:03:00,
2013-03-15 14:18:00,37.8,9.0,29.70,SW,231,1.0,4.0,30,0.00,,,0.00,weatherlink.com 1.10,2013-03-15 18:18:00,
2013-03-15 14:33:00,37.9,10.0,29.68,WSW,257,2.0,5.0,31,0.00,,,0.00,weatherlink.com 1.10,2013-03-15 18:33:00,
2013-03-15 14:48:00,37.5,11.0,29.68,SW,235,2.0,5.0,33,0.00,,,0.00,weatherlink.com 1.10,2013-03-15 18:48:00,
2013-03-15 15:03:00,38.0,12.0,29.68,West,263,1.0,4.0,34,0.00,,,0.00,weatherlink.com 1.10,2013-03-15 19:03:00,
2013-03-15 15:18:00,38.9,12.0,29.67,West,264,1.0,5.0,33,0.00,,,0.00,weatherlink.com 1.10,2013-03-15 19:18:00,
2013-03-15 15:33:00,39.6,13.0,29.67,West,262,2.0,3.0,34,0.00,,,0.00,weatherlink.com 1.10,2013-03-15 19:33:00,
2013-03-15 15:48:00,40.1,15.0,29.66,SW,218,1.0,6.0,36,0.00,,,0.00,weatherlink.com 1.10,2013-03-15 19:48:00,
2013-03-15 16:04:00,39.4,16.0,29.66,West,259,0.0,4.0,39,0.00,,,0.00,weatherlink.com 1.10,2013-03-15 20:04:00,
2013-03-15 16:18:00,39.7,15.0,29.65,West,266,2.0,5.0,37,0.00,,,0.00,weatherlink.com 1.10,2013-03-15 20:18:00,
2013-03-15 16:33:00,39.6,15.0,29.64,West,269,1.0,6.0,37,0.00,,,0.00,weatherlink.com 1.10,2013-03-15 20:33:00,
2013-03-15 16:48:00,39.8,17.0,29.63,West,276,0.0,5.0,40,0.00,,,0.00,weatherlink.com 1.10,2013-03-15 20:48:00,
2013-03-15 17:03:00,40.3,17.0,29.62,SSW,200,1.0,5.0,39,0.00,,,0.00,weatherlink.com 1.10,2013-03-15 21:03:00,
2013-03-15 17:18:00,40.1,19.0,29.62,SSE,150,5.0,6.0,42,0.00,,,0.00,weatherlink.com 1.10,2013-03-15 21:18:00,
2013-03-15 17:33:00,39.6,22.0,29.63,WSW,238,1.0,8.0,50,0.00,,,0.00,weatherlink.com 1.10,2013-03-15 21:33:00,
2013-03-15 17:48:00,38.9,24.0,29.64,WSW,250,1.0,4.0,56,0.00,,,0.00,weatherlink.com 1.10,2013-03-15 21:48:00,
2013-03-15 18:02:00,38.4,24.0,29.63,SW,228,2.0,4.0,57,0.00,,,0.00,weatherlink.com 1.10,2013-03-15 22:02:00,
2013-03-15 18:17:00,37.9,25.0,29.63,WSW,242,0.0,5.0,60,0.00,,,0.00,weatherlink.com 1.10,2013-03-15 22:17:00,
2013-03-15 18:32:00,37.5,25.0,29.63,West,264,0.0,5.0,61,0.00,,,0.00,weatherlink.com 1.10,2013-03-15 22:32:00,
2013-03-15 18:47:00,37.2,25.0,29.64,WSW,257,0.0,1.0,61,0.00,,,0.00,weatherlink.com 1.10,2013-03-15 22:47:00,
2013-03-15 19:03:00,37.1,25.0,29.64,SSW,192,2.0,3.0,62,0.00,,,0.00,weatherlink.com 1.10,2013-03-15 23:03:00,
2013-03-15 19:17:00,36.9,26.0,29.64,West,259,0.0,3.0,64,0.00,,,0.00,weatherlink.com 1.10,2013-03-15 23:17:00,
2013-03-15 19:32:00,36.6,26.0,29.64,WSW,243,0.0,2.0,65,0.00,,,0.00,weatherlink.com 1.10,2013-03-15 23:32:00,
2013-03-15 19:47:00,36.7,26.0,29.64,SW,226,0.0,2.0,65,0.00,,,0.00,weatherlink.com 1.10,2013-03-15 23:47:00,
2013-03-15 20:02:00,36.7,26.0,29.64,West,267,1.0,2.0,66,0.00,,,0.00,weatherlink.com 1.10,2013-03-16 00:02:00,
2013-03-15 20:17:00,36.6,27.0,29.64,WSW,243,0.0,4.0,67,0.00,,,0.00,weatherlink.com 1.10,2013-03-16 00:17:00,
2013-03-15 20:32:00,36.7,27.0,29.65,WSW,255,1.0,3.0,69,0.00,,,0.00,weatherlink.com 1.10,2013-03-16 00:32:00,
2013-03-15 20:47:00,36.1,28.0,29.65,NW,318,0.0,3.0,73,0.00,,,0.00,weatherlink.com 1.10,2013-03-16 00:47:00,
2013-03-15 21:03:00,35.5,28.0,29.65,WSW,240,0.0,4.0,73,0.00,,,0.00,weatherlink.com 1.10,2013-03-16 01:03:00,
2013-03-15 21:17:00,35.2,27.0,29.64,WSW,256,1.0,3.0,73,0.00,,,0.00,weatherlink.com 1.10,2013-03-16 01:17:00,
2013-03-15 21:33:00,35.1,28.0,29.65,WSW,246,0.0,3.0,74,0.00,,,0.00,weatherlink.com 1.10,2013-03-16 01:33:00,
2013-03-15 21:48:00,34.6,28.0,29.65,SW,214,1.0,4.0,76,0.00,,,0.00,weatherlink.com 1.10,2013-03-16 01:48:00,
2013-03-15 22:03:00,34.4,28.0,29.64,WSW,239,0.0,3.0,76,0.00,,,0.00,weatherlink.com 1.10,2013-03-16 02:03:00,
2013-03-15 22:18:00,34.2,28.0,29.64,WSW,243,2.0,3.0,77,0.00,,,0.00,weatherlink.com 1.10,2013-03-16 02:18:00,
2013-03-15 22:33:00,33.8,28.0,29.65,NNE,30,2.0,3.0,78,0.00,,,0.00,weatherlink.com 1.10,2013-03-16 02:33:00,
2013-03-15 22:48:00,33.6,28.0,29.65,NW,322,2.0,4.0,79,0.00,,,0.00,weatherlink.com 1.10,2013-03-16 02:48:00,
2013-03-15 23:03:00,33.4,28.0,29.65,West,278,0.0,3.0,80,0.00,,,0.00,weatherlink.com 1.10,2013-03-16 03:03:00,
2013-03-15 23:18:00,33.0,28.0,29.65,WSW,243,1.0,2.0,81,0.00,,,0.00,weatherlink.com 1.10,2013-03-16 03:18:00,
2013-03-15 23:33:00,32.8,28.0,29.66,SSW,211,1.0,2.0,82,0.00,,,0.00,weatherlink.com 1.10,2013-03-16 03:33:00,
2013-03-15 23:49:00,32.8,28.0,29.66,WSW,249,1.0,3.0,82,0.00,,,0.00,weatherlink.com 1.10,2013-03-16 03:49:00,